Regional Weather Roundup
Issued by NWS

Home | Current Version | Previous Version | Text Only | Print | Product List | Glossary On
Versions: 1 2 3 4 5 6 7 8 9 10 11 12 13 14 15 16 17 18 19 20 21 22 23 24 25 26 27 28 29 30 31 32 33 34 35 36 37 38 39 40 41 42 43 44 45 46 47 48 49 50
000
ASUS43 KDTX 230210
RWRMI
MICHIGAN HOURLY REGIONAL WEATHER ROUNDUP
NATIONAL WEATHER SERVICE DETROIT/PONTIAC MI
ISSUED BY NATIONAL WEATHER SERVICE GRAND RAPIDS MI
1000 PM EDT THU JUN 22 2017

NOTE: "FAIR" INDICATES FEW OR NO CLOUDS BELOW 12,000 FEET WITH NO
SIGNIFICANT WEATHER AND/OR OBSTRUCTION TO VISIBILITY.

MIZ047>049-052>055-059>063-066>070-074>076-081>083-230300-
SOUTHEAST LOWER MICHIGAN

CITY           SKY/WX    TMP DP  RH WIND       PRES   REMARKS
ADRIAN         MOCLDY    78  68  71 SW14      29.81S
ALMA           HVY RAIN  71  69  93 W7G17     29.75F
BAD AXE        RAIN      72  70  94 CALM      29.75F
DETROIT CITY   LGT RAIN  73  71  93 CALM      29.80S
DETROIT        CLOUDY    73  70  90 S6        29.81F
FLINT          CLOUDY    74  68  81 SW9       29.77S
GROSSE ILE     MOCLDY    71  70  97 CALM      29.80S
HILLSDALE      CLOUDY    77  66  69 S10       29.81S
HOWELL         LGT RAIN  71  67  88 W5        29.78S

CITY           SKY/WX    TMP DP  RH WIND       PRES   REMARKS
JACKSON        CLOUDY    75  71  87 S3        29.79S
LANSING        CLOUDY    73  67  81 S9        29.77F
MASON          CLOUDY    71  70  96 NW5       29.79S
MONROE         MOCLDY    73  71  92 S5        29.77R
MT. CLEMENS    TSTM      72  71  99 S15G31    29.79F
PONTIAC        LGT RAIN  73  72  96 S7        29.79S
PORT HOPE        N/A     74  67  78 CALM      29.73S
PORT HURON     CLOUDY    73  63  68 SW9       29.79F
TRI CITIES     LGT RAIN  75  72  90 SW6       29.74F
YPSILANTI      CLOUDY    73  71  93 S5        29.81S
$$
MIZ043>046-050>051-056>058-064>065-071>073-077>080-230300-
SOUTHWEST LOWER MICHIGAN

CITY           SKY/WX    TMP DP  RH WIND       PRES   REMARKS
BATTLE CREEK   CLOUDY    78  69  73 SW17      29.78S
BENTON HARBOR  PTCLDY    79  67  66 SW12G22   29.73S
BIG RAPIDS     MOCLDY    71  68  92 CALM      29.72F
COLDWATER      CLOUDY    74  70  86 SW6       29.79F
HOLLAND        CLOUDY    74  69  85 S7        29.73F
GRAND RAPIDS   MOCLDY    74  72  93 S8        29.73F
KALAMAZOO      MOCLDY    77  68  73 S10       29.76F
MARSHALL       CLOUDY    76  74  95 S7        29.78S
MOUNT PLEASANT HVY RAIN  71  69  93 S6        29.75R
MUSKEGON       CLOUDY    73  67  81 VRB3      29.72F
STURGIS        MOCLDY    74  69  86 S8        29.78F
$$
MIZ016>042-230300-
NORTHERN LOWER MICHIGAN

CITY           SKY/WX    TMP DP  RH WIND       PRES   REMARKS
ALPENA         MOCLDY    69  68  96 CALM      29.71S
BELLAIRE       LGT RAIN  68  64  88 S3        29.71F
CADILLAC       PTCLDY    66  64  93 CALM      29.74F
CHARLEVOIX     LGT RAIN  64  64 100 W3        29.74S
GAYLORD        LGT RAIN  70  63  78 SW13      29.73F
HOUGHTON LAKE  MOCLDY    72  64  76 W5        29.74F
MANISTEE       LGT RAIN  66  65  96 CALM      29.71F
OSCODA         CLOUDY    73  67  81 SW3       29.71F
PELLSTON       LGT RAIN  64  61  90 SW3       29.71F
TRAVERSE CITY  CLOUDY    70  63  78 W5        29.70F
LUDINGTON      LGT RAIN  67  66  97 E3        29.70F
$$
MIZ007>008-015-230300-
EASTERN UPPER MICHIGAN

CITY           SKY/WX    TMP DP  RH WIND       PRES   REMARKS
KINROSS        LGT RAIN  63  62  97 W5        29.70R
MACKINAC ISLAN LGT RAIN  60  60 100 W5        29.72R
NEWBERRY       CLOUDY    64  63  97 SW6       29.69R
S. S. MARIE    CLOUDY    67  64  90 SW7       29.68R
$$
MIZ004>006-011>014-085-230300-
CENTRAL UPPER MICHIGAN

CITY           SKY/WX    TMP DP  RH WIND       PRES   REMARKS
MANISTIQUE     CLOUDY    61  58  90 CALM      29.68F FOG
ESCANABA       LGT RAIN  67  66  97 CALM      29.69R
MENOMINEE      LGT RAIN  66  65  96 CALM      29.71S
SAWYER-GWINN   MOCLDY    64  61  88 SW7       29.69F
$$
MIZ001>003-009>011-084-230300-
WESTERN UPPER MICHIGAN

CITY           SKY/WX    TMP DP  RH WIND       PRES   REMARKS
IRON MOUNTAIN  CLOUDY    66  60  81 NW5       29.68F
HOUGHTON       CLEAR     63  48  58 W3        29.65F
COPPER HARBOR    N/A     68  45  43 CALM      29.63F
IRONWOOD       CLEAR     66  56  70 SW6       29.69F
$$

ABBREVIATIONS USED IN REMARKS
   TC - TEMPERATURE IN CELSIUS
  WCI - WIND CHILL INDEX
   HX - HEAT INDEX
  VSB - VISIBILITY




USA.gov is the U.S. government's official web portal to all federal, state and local government web resources and services.